Tracking 20621 objects as of 31-Mar-2020
HD Live streaming from Space Station
objects crossing your sky now

PEGASUS R/B

Track PEGASUS R/B now!
10-day predictions


NORAD ID: 22491
Int'l Code: 1993-009C
Perigee: 688.3 km
Apogee: 755.7 km
Inclination: 25.0 °
Period: 99.1 minutes
Semi major axis: 7092 km
RCS: 0.1679 m2 (medium)
Launch date: February 9, 1993
Source: United States (US)
Launch site: AIR FORCE EASTERN TEST RANGE (AFETR)

Note: This is a ROCKET BODY
aabbcc
Your satellite tracking list
Your tracking list is empty




NASA's NSSDC Master Catalog

Two Line Element Set (TLE):
1 22491U 93009C   20090.79288846  .00000336  00000-0  31875-4 0  9992
2 22491  24.9769 260.9971 0047528 229.7518 129.8828 14.53318174439114
Source of the keplerian elements: AFSPC